Weather History for Kill Devil Hills, NC

Change the Weather History Date:

Wednesday, February 19, 2014

  Actual Average (KMQI) Record (KMQI)
Temperature  
Mean Temperature 56 °F -  
Max Temperature 67 °F 51 °F 77 °F (1976)
Min Temperature 44 °F 37 °F 18 °F (1973)
Degree Days  
Heating Degree Days 10    
Growing Degree Days 6 (Base 50)    
Moisture  
Dew Point 50 °F    
Average Humidity 82    
Maximum Humidity 97    
Minimum Humidity 67    
Precipitation  
Precipitation 0.16 in - - ()
Sea Level Pressure  
Sea Level Pressure 29.99 in    
Wind  
Wind Speed 6 mph (SW)    
Max Wind Speed 17 mph    
Max Gust Speed 28 mph    
Visibility 9 miles    
Events Rain    
Averages and records for this station are not official NWS values.
T = Trace of Precipitation, MM = Missing Value Source: NWS Daily Summary

Daily Weather History Graph

Daily Weather History Graph

Search for Another Location

Airport:

Trip Planner

Search our weather history database for the weather conditions in past years. The results will help you decide how hot, cold, wet, or windy it might be!

Date:

Astronomy

Feb. 19, 2014 Rise Set
Actual Time 6:45 AM EST 5:48 PM EST
Civil Twilight 6:19 AM EST 6:14 PM EST
Nautical Twilight 5:49 AM EST 6:44 PM EST
Astronomical Twilight 5:19 AM EST 7:13 PM EST
Moon 10:28 PM EST (2/19) 8:59 AM EST (2/19)
Length of Visible Light 11h 54m
Length of Day
11h 02m
Waning Gibbous, 80% of the Moon is Illuminated
Feb 19
Waning Gibbous
Feb 22
Last Quarter
Mar 1
New
Mar 8
First Quarter
Mar 16
Full

Hourly Weather History & Observations

Time (EST) Temp. Windchill Dew Point Humidity Pressure Visibility Wind Dir Wind Speed Gust Speed Precip Events Conditions
12:55 AM 47.3 °F - 41.0 °F 79% 30.13 in 10.0 mi SSW 4.6 mph - N/A   Clear
1:15 AM 47.5 °F - 41.5 °F 80% 30.12 in 10.0 mi SSW 3.5 mph - N/A   Clear
1:35 AM 48.0 °F - 42.1 °F 80% 30.12 in 10.0 mi SSW 3.5 mph - N/A   Clear
1:55 AM 47.8 °F - 42.8 °F 83% 30.11 in 10.0 mi SSW 3.5 mph - N/A   Clear
2:15 AM 47.8 °F - 43.7 °F 86% 30.11 in 10.0 mi SW 3.5 mph - N/A   Clear
2:35 AM 47.3 °F - 44.1 °F 88% 30.11 in 10.0 mi SW 5.8 mph - N/A   Clear
2:55 AM 47.5 °F - 44.8 °F 90% 30.11 in 10.0 mi SW 4.6 mph - N/A   Clear
3:15 AM 46.8 °F - 44.4 °F 92% 30.10 in 10.0 mi SW 3.5 mph - N/A   Clear
3:35 AM 45.9 °F 44.6 °F 43.9 °F 93% 30.10 in 10.0 mi SW 3.5 mph - N/A   Clear
3:55 AM 45.3 °F 44.0 °F 43.5 °F 93% 30.09 in 10.0 mi SSW 3.5 mph - N/A   Clear
4:15 AM 45.3 °F - 43.7 °F 94% 30.07 in 10.0 mi Calm Calm - N/A   Clear
4:35 AM 45.5 °F - 43.5 °F 93% 30.07 in 10.0 mi Calm Calm - N/A   Clear
4:55 AM 44.4 °F - 42.8 °F 94% 30.07 in 7.0 mi Calm Calm - N/A   Clear
5:15 AM 45.1 °F 43.7 °F 43.7 °F 95% 30.05 in 10.0 mi SSE 3.5 mph - N/A   Clear
5:35 AM 45.0 °F 43.5 °F 43.3 °F 94% 30.04 in 10.0 mi SSE 3.5 mph - N/A   Clear
5:55 AM 45.0 °F 43.5 °F 43.3 °F 94% 30.04 in 10.0 mi South 3.5 mph - N/A   Clear
6:15 AM 47.8 °F - 43.3 °F 84% 30.03 in 10.0 mi South 3.5 mph - N/A   Clear
6:35 AM 48.4 °F - 42.4 °F 80% 30.02 in 10.0 mi SSE 4.6 mph - N/A   Clear
6:55 AM 47.5 °F - 43.0 °F 84% 30.02 in 10.0 mi South 4.6 mph - N/A   Scattered Clouds
7:15 AM 51.4 °F - 43.9 °F 75% 30.02 in 10.0 mi SSW 4.6 mph - N/A   Scattered Clouds
7:35 AM 51.8 °F - 44.4 °F 76% 30.01 in 10.0 mi South 4.6 mph - N/A   Scattered Clouds
7:55 AM 52.0 °F - 44.6 °F 76% 30.01 in 10.0 mi South 4.6 mph - N/A   Mostly Cloudy
8:15 AM 51.8 °F - 45.5 °F 79% 30.02 in 7.0 mi SSW 5.8 mph - N/A Rain Rain
8:35 AM 49.5 °F - 46.4 °F 89% 30.03 in 4.0 mi SW 8.1 mph - 0.05 in Rain Rain
8:55 AM 52.3 °F - 50.9 °F 95% 30.02 in 4.0 mi WSW 13.8 mph 23.0 mph 0.10 in Rain Rain
9:15 AM 54.3 °F - 53.1 °F 95% 30.03 in 3.0 mi SW 9.2 mph 19.6 mph 0.04 in Rain Light Rain
9:35 AM 52.7 °F - 51.6 °F 96% 29.98 in 2.5 mi SSW 4.6 mph - 0.06 in Rain Light Rain
9:55 AM 52.0 °F - 51.1 °F 97% 29.97 in 4.0 mi South 5.8 mph - 0.06 in   Scattered Clouds
10:15 AM 52.7 °F - 52.0 °F 97% 29.96 in 7.0 mi SSW 6.9 mph - N/A   Scattered Clouds
10:35 AM 53.1 °F - 52.2 °F 97% 29.97 in 7.0 mi SW 9.2 mph - N/A   Scattered Clouds
10:55 AM 53.4 °F - 52.3 °F 96% 29.95 in 10.0 mi SSW 6.9 mph - N/A   Mostly Cloudy
11:15 AM 55.0 °F - 53.4 °F 94% 29.93 in 10.0 mi SSW 9.2 mph - N/A   Overcast
11:35 AM 57.6 °F - 54.1 °F 88% 29.93 in 10.0 mi SSW 11.5 mph 18.4 mph N/A   Scattered Clouds
11:55 AM 60.8 °F - 54.7 °F 80% 29.92 in 10.0 mi SW 11.5 mph 19.6 mph N/A   Scattered Clouds
12:15 PM 62.8 °F - 54.5 °F 74% 29.91 in 10.0 mi SW 10.4 mph 19.6 mph N/A   Scattered Clouds
12:35 PM 64.6 °F - 55.4 °F 72% 29.90 in 10.0 mi WSW 13.8 mph 23.0 mph N/A   Clear
12:55 PM 64.4 °F - 55.4 °F 73% 29.90 in 10.0 mi SW 15.0 mph 26.5 mph N/A   Scattered Clouds
1:15 PM 63.1 °F - 55.2 °F 75% 29.88 in 10.0 mi SW 17.3 mph 27.6 mph N/A   Mostly Cloudy
1:35 PM 64.4 °F - 55.4 °F 73% 29.88 in 10.0 mi SW 13.8 mph 25.3 mph N/A   Scattered Clouds
1:55 PM 64.0 °F - 55.2 °F 73% 29.88 in 10.0 mi WSW 12.7 mph 20.7 mph N/A   Mostly Cloudy
2:15 PM 65.5 °F - 55.9 °F 71% 29.87 in 10.0 mi WSW 11.5 mph 20.7 mph N/A   Mostly Cloudy
2:35 PM 66.4 °F - 56.1 °F 69% 29.87 in 10.0 mi WSW 10.4 mph 17.3 mph N/A   Scattered Clouds
2:55 PM 66.7 °F - 56.3 °F 69% 29.87 in 10.0 mi WSW 9.2 mph 17.3 mph N/A   Scattered Clouds
3:15 PM 67.1 °F - 56.3 °F 68% 29.86 in 10.0 mi WSW 10.4 mph 17.3 mph N/A   Scattered Clouds
3:35 PM 67.1 °F - 56.3 °F 68% 29.86 in 10.0 mi SW 8.1 mph 17.3 mph N/A   Scattered Clouds
3:55 PM 67.8 °F - 56.3 °F 67% 29.87 in 10.0 mi WSW 10.4 mph - N/A   Scattered Clouds
4:15 PM 67.6 °F - 56.1 °F 67% 29.89 in 10.0 mi WSW 6.9 mph - N/A   Clear
4:35 PM 67.1 °F - 55.8 °F 67% 29.90 in 10.0 mi SW 6.9 mph - N/A   Clear
4:55 PM 66.6 °F - 55.8 °F 68% 29.90 in 10.0 mi WSW 6.9 mph 16.1 mph N/A   Clear
5:15 PM 65.1 °F - 55.4 °F 71% 29.91 in 10.0 mi SW 6.9 mph - N/A   Clear
5:35 PM 63.7 °F - 55.0 °F 73% 29.92 in 10.0 mi South 3.5 mph - N/A   Clear
5:55 PM 60.3 °F - 53.8 °F 79% 29.93 in 10.0 mi SSW 4.6 mph - N/A   Clear
6:15 PM 60.3 °F - 54.0 °F 80% 29.94 in 10.0 mi SSW 6.9 mph - N/A   Clear
6:35 PM 60.3 °F - 54.0 °F 80% 29.95 in 10.0 mi SSW 5.8 mph - N/A   Clear
6:55 PM 59.2 °F - 53.4 °F 81% 29.96 in 10.0 mi SSW 5.8 mph - N/A   Clear
7:15 PM 58.3 °F - 53.1 °F 83% 29.97 in 10.0 mi SSW 6.9 mph - N/A   Clear
7:35 PM 57.7 °F - 52.9 °F 84% 29.98 in 10.0 mi SSW 6.9 mph - N/A   Clear
7:55 PM 57.7 °F - 52.9 °F 84% 29.99 in 10.0 mi SW 8.1 mph - N/A   Clear
8:15 PM 58.1 °F - 52.9 °F 83% 29.99 in 10.0 mi SSW 6.9 mph - N/A   Clear
8:35 PM 57.9 °F - 52.7 °F 83% 30.01 in 10.0 mi SSW 6.9 mph - N/A   Clear
8:55 PM 57.6 °F - 52.3 °F 83% 30.01 in 10.0 mi SSW 5.8 mph - N/A   Clear
9:15 PM 57.4 °F - 52.2 °F 83% 30.02 in 10.0 mi SW 6.9 mph - N/A   Clear
9:35 PM 57.4 °F - 52.0 °F 82% 30.04 in 10.0 mi SW 5.8 mph - N/A   Clear
9:55 PM 57.4 °F - 52.0 °F 82% 30.04 in 10.0 mi SW 4.6 mph - N/A   Clear
10:15 PM 57.7 °F - 51.8 °F 81% 30.05 in 10.0 mi SW 5.8 mph - N/A   Clear
10:35 PM 58.1 °F - 51.8 °F 80% 30.05 in 10.0 mi SW 4.6 mph - N/A   Clear
10:55 PM 57.2 °F - 51.4 °F 81% 30.06 in 10.0 mi SW 3.5 mph - N/A   Clear
11:35 PM 57.0 °F - 51.1 °F 81% 30.08 in 10.0 mi West 4.6 mph - N/A   Scattered Clouds
11:55 PM 55.6 °F - 50.5 °F 83% 30.08 in 10.0 mi West 3.5 mph - N/A   Scattered Clouds